Year,Month,Day,Hour,Minute,Value (Times are PST for temperature in C)
2018,06,18,00,00,16.30
2018,06,18,00,01,16.30
2018,06,18,00,02,16.30
2018,06,18,00,03,16.30
2018,06,18,00,04,16.20
2018,06,18,00,05,16.20
2018,06,18,00,06,16.10
2018,06,18,00,07,16.10
2018,06,18,00,08,16.00
2018,06,18,00,09,16.00
2018,06,18,00,10,15.90
2018,06,18,00,11,15.90
2018,06,18,00,12,15.90
2018,06,18,00,13,15.80
2018,06,18,00,14,15.80
2018,06,18,00,15,15.80
2018,06,18,00,16,15.70
2018,06,18,00,17,15.60
2018,06,18,00,18,15.60
2018,06,18,00,19,15.60
2018,06,18,00,20,15.50
2018,06,18,00,21,15.50
2018,06,18,00,22,15.40
2018,06,18,00,23,15.40
2018,06,18,00,24,15.40
2018,06,18,00,25,15.40
2018,06,18,00,26,15.40
2018,06,18,00,27,15.50
2018,06,18,00,28,15.50
2018,06,18,00,29,15.50
2018,06,18,00,30,15.50
2018,06,18,00,31,15.50
2018,06,18,00,32,15.50
2018,06,18,00,33,15.60
2018,06,18,00,34,15.60
2018,06,18,00,35,15.60
2018,06,18,00,36,15.60
2018,06,18,00,37,15.60
2018,06,18,00,38,15.60
2018,06,18,00,39,15.60
2018,06,18,00,40,15.60
2018,06,18,00,41,15.60
2018,06,18,00,42,15.60
2018,06,18,00,43,15.60
2018,06,18,00,44,15.60
2018,06,18,00,45,15.60
2018,06,18,00,46,15.70
2018,06,18,00,47,15.70
2018,06,18,00,48,15.70
2018,06,18,00,49,15.80
2018,06,18,00,50,15.80
2018,06,18,00,51,15.90
2018,06,18,00,52,15.90
2018,06,18,00,53,15.90
2018,06,18,00,54,16.00
2018,06,18,00,55,16.00
2018,06,18,00,56,16.10
2018,06,18,00,57,16.10
2018,06,18,00,58,16.10
2018,06,18,00,59,16.10
2018,06,18,01,00,16.20
2018,06,18,01,01,16.20
2018,06,18,01,02,16.20
2018,06,18,01,03,16.20
2018,06,18,01,04,16.20
2018,06,18,01,05,16.20
2018,06,18,01,06,16.20
2018,06,18,01,07,16.20
2018,06,18,01,08,16.20
2018,06,18,01,09,16.30
2018,06,18,01,10,16.30
2018,06,18,01,11,16.30
2018,06,18,01,12,16.30
2018,06,18,01,13,16.30
2018,06,18,01,14,16.30
2018,06,18,01,15,16.30
2018,06,18,01,16,16.30
2018,06,18,01,17,16.30
2018,06,18,01,18,16.30
2018,06,18,01,19,16.30
2018,06,18,01,20,16.30
2018,06,18,01,21,16.30
2018,06,18,01,22,16.30
2018,06,18,01,23,16.30
2018,06,18,01,24,16.30
2018,06,18,01,25,16.30
2018,06,18,01,26,16.30
2018,06,18,01,27,16.30
2018,06,18,01,28,16.30
2018,06,18,01,29,16.30
2018,06,18,01,30,16.30
2018,06,18,01,31,16.30
2018,06,18,01,32,16.30
2018,06,18,01,33,16.30
2018,06,18,01,34,16.30
2018,06,18,01,35,16.30
2018,06,18,01,36,16.30
2018,06,18,01,37,16.40
2018,06,18,01,38,16.40
2018,06,18,01,39,16.40
2018,06,18,01,40,16.40
2018,06,18,01,41,16.40
2018,06,18,01,42,16.50
2018,06,18,01,43,16.50
2018,06,18,01,44,16.60
2018,06,18,01,45,16.70
2018,06,18,01,46,16.70
2018,06,18,01,47,16.80
2018,06,18,01,48,16.80
2018,06,18,01,49,16.80
2018,06,18,01,50,16.90
2018,06,18,01,51,16.90
2018,06,18,01,52,16.90
2018,06,18,01,53,16.90
2018,06,18,01,54,16.90
2018,06,18,01,55,16.90
2018,06,18,01,56,16.90
2018,06,18,01,57,16.90
2018,06,18,01,58,16.80
2018,06,18,01,59,16.80
2018,06,18,02,00,16.80
2018,06,18,02,01,16.80
2018,06,18,02,02,16.80
2018,06,18,02,03,16.70
2018,06,18,02,04,16.70
2018,06,18,02,05,16.70
2018,06,18,02,06,16.70
2018,06,18,02,07,16.60
2018,06,18,02,08,16.60
2018,06,18,02,09,16.60
2018,06,18,02,10,16.60
2018,06,18,02,11,16.50
2018,06,18,02,12,16.50
2018,06,18,02,13,16.50
2018,06,18,02,14,16.40
2018,06,18,02,15,16.40
2018,06,18,02,16,16.40
2018,06,18,02,17,16.40
2018,06,18,02,18,16.30
2018,06,18,02,19,16.30
2018,06,18,02,20,16.30
2018,06,18,02,21,16.30
2018,06,18,02,22,16.30
2018,06,18,02,23,16.30
2018,06,18,02,24,16.30
2018,06,18,02,25,16.20
2018,06,18,02,26,16.20
2018,06,18,02,27,16.20
2018,06,18,02,28,16.20
2018,06,18,02,29,16.20
2018,06,18,02,30,16.20
2018,06,18,02,31,16.20
2018,06,18,02,32,16.20
2018,06,18,02,33,16.20
2018,06,18,02,34,16.20
2018,06,18,02,35,16.10
2018,06,18,02,36,16.20
2018,06,18,02,37,16.10
2018,06,18,02,38,16.20
2018,06,18,02,39,16.20
2018,06,18,02,40,16.20
2018,06,18,02,41,16.20
2018,06,18,02,42,16.20
2018,06,18,02,43,16.20
2018,06,18,02,44,16.20
2018,06,18,02,45,16.20
2018,06,18,02,46,16.20
2018,06,18,02,47,16.20
2018,06,18,02,48,16.20
2018,06,18,02,49,16.20
2018,06,18,02,50,16.20
2018,06,18,02,51,16.20
2018,06,18,02,52,16.20
2018,06,18,02,53,16.20
2018,06,18,02,54,16.20
2018,06,18,02,55,16.20
2018,06,18,02,56,16.20
2018,06,18,02,57,16.20
2018,06,18,02,58,16.20
2018,06,18,02,59,16.20
2018,06,18,03,00,16.20
2018,06,18,03,01,16.20
2018,06,18,03,02,16.20
2018,06,18,03,03,16.20
2018,06,18,03,04,16.20
2018,06,18,03,05,16.20
2018,06,18,03,06,16.20
2018,06,18,03,07,16.20
2018,06,18,03,08,16.20
2018,06,18,03,09,16.20
2018,06,18,03,10,16.20
2018,06,18,03,11,16.10
2018,06,18,03,12,16.10
2018,06,18,03,13,16.10
2018,06,18,03,14,16.10
2018,06,18,03,15,16.10
2018,06,18,03,16,16.10
2018,06,18,03,17,16.10
2018,06,18,03,18,16.10
2018,06,18,03,19,16.10
2018,06,18,03,20,16.10
2018,06,18,03,21,16.10
2018,06,18,03,22,16.10
2018,06,18,03,23,16.10
2018,06,18,03,24,16.10
2018,06,18,03,25,16.10
2018,06,18,03,26,16.10
2018,06,18,03,27,16.10
2018,06,18,03,28,16.20
2018,06,18,03,29,16.20
2018,06,18,03,30,16.20
2018,06,18,03,31,16.20
2018,06,18,03,32,16.20
2018,06,18,03,33,16.20
2018,06,18,03,34,16.20
2018,06,18,03,35,16.20
2018,06,18,03,36,16.20
2018,06,18,03,37,16.20
2018,06,18,03,38,16.20
2018,06,18,03,39,16.20
2018,06,18,03,40,16.20
2018,06,18,03,41,16.20
2018,06,18,03,42,16.20
2018,06,18,03,43,16.20
2018,06,18,03,44,16.20
2018,06,18,03,45,16.20
2018,06,18,03,46,16.20
2018,06,18,03,47,16.20
2018,06,18,03,48,16.20
2018,06,18,03,49,16.20
2018,06,18,03,50,16.20
2018,06,18,03,51,16.10
2018,06,18,03,52,16.10
2018,06,18,03,53,16.20
2018,06,18,03,54,16.20
2018,06,18,03,55,16.20
2018,06,18,03,56,16.20
2018,06,18,03,57,16.30
2018,06,18,03,58,16.30
2018,06,18,03,59,16.30
2018,06,18,04,00,16.30
2018,06,18,04,01,16.30
2018,06,18,04,02,16.20
2018,06,18,04,03,16.20
2018,06,18,04,04,16.20
2018,06,18,04,05,16.20
2018,06,18,04,06,16.20
2018,06,18,04,07,16.20
2018,06,18,04,08,16.10
2018,06,18,04,09,16.00
2018,06,18,04,10,15.90
2018,06,18,04,11,15.80
2018,06,18,04,12,15.80
2018,06,18,04,13,15.70
2018,06,18,04,14,15.60
2018,06,18,04,15,15.50
2018,06,18,04,16,15.40
2018,06,18,04,17,15.40
2018,06,18,04,18,15.30
2018,06,18,04,19,15.20
2018,06,18,04,20,15.20
2018,06,18,04,21,15.10
2018,06,18,04,22,15.10
2018,06,18,04,23,15.00
2018,06,18,04,24,15.00
2018,06,18,04,25,14.90
2018,06,18,04,26,14.90
2018,06,18,04,27,14.90
2018,06,18,04,28,14.90
2018,06,18,04,29,14.90
2018,06,18,04,30,14.90
2018,06,18,04,31,15.00
2018,06,18,04,32,15.00
2018,06,18,04,33,15.00
2018,06,18,04,34,15.10
2018,06,18,04,35,15.10
2018,06,18,04,36,15.00
2018,06,18,04,37,14.90
2018,06,18,04,38,14.80
2018,06,18,04,39,14.80
2018,06,18,04,40,14.70
2018,06,18,04,41,14.60
2018,06,18,04,42,14.50
2018,06,18,04,43,14.50
2018,06,18,04,44,14.50
2018,06,18,04,45,14.40
2018,06,18,04,46,14.40
2018,06,18,04,47,14.40
2018,06,18,04,48,14.30
2018,06,18,04,49,14.30
2018,06,18,04,50,14.30
2018,06,18,04,51,14.30
2018,06,18,04,52,14.20
2018,06,18,04,53,14.20
2018,06,18,04,54,14.10
2018,06,18,04,55,14.10
2018,06,18,04,56,14.00
2018,06,18,04,57,14.00
2018,06,18,04,58,13.90
2018,06,18,04,59,13.80
2018,06,18,05,00,13.80
2018,06,18,05,01,13.70
2018,06,18,05,02,13.70
2018,06,18,05,03,13.70
2018,06,18,05,04,13.70
2018,06,18,05,05,13.60
2018,06,18,05,06,13.60
2018,06,18,05,07,13.50
2018,06,18,05,08,13.50
2018,06,18,05,09,13.40
2018,06,18,05,10,13.40
2018,06,18,05,11,13.30
2018,06,18,05,12,13.30
2018,06,18,05,13,13.30
2018,06,18,05,14,13.30
2018,06,18,05,15,13.30
2018,06,18,05,16,13.30
2018,06,18,05,17,13.30
2018,06,18,05,18,13.30
2018,06,18,05,19,13.30
2018,06,18,05,20,13.30
2018,06,18,05,21,13.30
2018,06,18,05,22,13.30
2018,06,18,05,23,13.30
2018,06,18,05,24,13.30
2018,06,18,05,25,13.30
2018,06,18,05,26,13.20
2018,06,18,05,27,13.20
2018,06,18,05,28,13.20
2018,06,18,05,29,13.20
2018,06,18,05,30,13.20
2018,06,18,05,31,13.20
2018,06,18,05,32,13.20
2018,06,18,05,33,13.20
2018,06,18,05,34,13.20
2018,06,18,05,35,13.20
2018,06,18,05,36,13.20
2018,06,18,05,37,13.20
2018,06,18,05,38,13.20
2018,06,18,05,39,13.20
2018,06,18,05,40,13.20
2018,06,18,05,41,13.30
2018,06,18,05,42,13.30
2018,06,18,05,43,13.30
2018,06,18,05,44,13.30
2018,06,18,05,45,13.20
2018,06,18,05,46,13.20
2018,06,18,05,47,13.20
2018,06,18,05,48,13.20
2018,06,18,05,49,13.30
2018,06,18,05,50,13.30
2018,06,18,05,51,13.30
2018,06,18,05,52,13.30
2018,06,18,05,53,13.30
2018,06,18,05,54,13.40
2018,06,18,05,55,13.40
2018,06,18,05,56,13.50
2018,06,18,05,57,13.50
2018,06,18,05,58,13.60
2018,06,18,05,59,13.70
2018,06,18,06,00,13.70
2018,06,18,06,01,13.80
2018,06,18,06,02,13.80
2018,06,18,06,03,13.90
2018,06,18,06,04,13.90
2018,06,18,06,05,13.90
2018,06,18,06,06,13.90
2018,06,18,06,07,14.00
2018,06,18,06,08,14.00
2018,06,18,06,09,14.10
2018,06,18,06,10,14.10
2018,06,18,06,11,14.00
2018,06,18,06,12,14.00
2018,06,18,06,13,14.00
2018,06,18,06,14,13.90
2018,06,18,06,15,13.90
2018,06,18,06,16,13.90
2018,06,18,06,17,13.90
2018,06,18,06,18,13.90
2018,06,18,06,19,13.90
2018,06,18,06,20,13.90
2018,06,18,06,21,13.90
2018,06,18,06,22,13.90
2018,06,18,06,23,14.00
2018,06,18,06,24,14.00
2018,06,18,06,25,14.10
2018,06,18,06,26,14.10
2018,06,18,06,27,14.20
2018,06,18,06,28,14.20
2018,06,18,06,29,14.20
2018,06,18,06,30,14.20
2018,06,18,06,31,14.20
2018,06,18,06,32,14.30
2018,06,18,06,33,14.30
2018,06,18,06,34,14.40
2018,06,18,06,35,14.50
2018,06,18,06,36,14.70
2018,06,18,06,37,14.80
2018,06,18,06,38,14.90
2018,06,18,06,39,15.00
2018,06,18,06,40,15.10
2018,06,18,06,41,15.20
2018,06,18,06,42,15.30
2018,06,18,06,43,15.50
2018,06,18,06,44,15.60
2018,06,18,06,45,15.70
2018,06,18,06,46,15.80
2018,06,18,06,47,15.90
2018,06,18,06,48,16.00
2018,06,18,06,49,16.20
2018,06,18,06,50,16.30
2018,06,18,06,51,16.40
2018,06,18,06,52,16.50
2018,06,18,06,53,16.60
2018,06,18,06,54,16.60
2018,06,18,06,55,16.70
2018,06,18,06,56,16.70
2018,06,18,06,57,16.80
2018,06,18,06,58,16.90
2018,06,18,06,59,17.00
2018,06,18,07,00,17.10
2018,06,18,07,01,17.20
2018,06,18,07,02,17.30
2018,06,18,07,03,17.40
2018,06,18,07,04,17.50
2018,06,18,07,05,17.50
2018,06,18,07,06,17.60
2018,06,18,07,07,17.70
2018,06,18,07,08,17.80
2018,06,18,07,09,17.90
2018,06,18,07,10,18.10
2018,06,18,07,11,18.20
2018,06,18,07,12,18.40
2018,06,18,07,13,18.50
2018,06,18,07,14,18.70
2018,06,18,07,15,18.80
2018,06,18,07,16,19.00
2018,06,18,07,17,19.10
2018,06,18,07,18,19.30
2018,06,18,07,19,19.40
2018,06,18,07,20,19.50
2018,06,18,07,21,19.70
2018,06,18,07,22,19.80
2018,06,18,07,23,19.80
2018,06,18,07,24,19.90
2018,06,18,07,25,20.00
2018,06,18,07,26,20.10
2018,06,18,07,27,20.20
2018,06,18,07,28,20.20
2018,06,18,07,29,20.20
2018,06,18,07,30,20.20
2018,06,18,07,31,20.20
2018,06,18,07,32,20.20
2018,06,18,07,33,20.20
2018,06,18,07,34,20.20
2018,06,18,07,35,20.20
2018,06,18,07,36,20.20
2018,06,18,07,37,20.20
2018,06,18,07,38,20.20
2018,06,18,07,39,20.20
2018,06,18,07,40,20.30
2018,06,18,07,41,20.30
2018,06,18,07,42,20.40
2018,06,18,07,43,20.50
2018,06,18,07,44,20.60
2018,06,18,07,45,20.70
2018,06,18,07,46,20.80
2018,06,18,07,47,20.90
2018,06,18,07,48,21.00
2018,06,18,07,49,21.10
2018,06,18,07,50,21.20
2018,06,18,07,51,21.30
2018,06,18,07,52,21.30
2018,06,18,07,53,21.40
2018,06,18,07,54,21.40
2018,06,18,07,55,21.50
2018,06,18,07,56,21.60
2018,06,18,07,57,21.70
2018,06,18,07,58,21.70
2018,06,18,07,59,21.80
2018,06,18,08,00,21.90
2018,06,18,08,01,21.90
2018,06,18,08,02,22.00
2018,06,18,08,03,22.10
2018,06,18,08,04,22.20
2018,06,18,08,05,22.30
2018,06,18,08,06,22.40
2018,06,18,08,07,22.50
2018,06,18,08,08,22.50
2018,06,18,08,09,22.60
2018,06,18,08,10,22.60
2018,06,18,08,11,22.70
2018,06,18,08,12,22.80
2018,06,18,08,13,22.90
2018,06,18,08,14,23.00
2018,06,18,08,15,23.20
2018,06,18,08,16,23.20
2018,06,18,08,17,23.30
2018,06,18,08,18,23.40
2018,06,18,08,19,23.40
2018,06,18,08,20,23.40
2018,06,18,08,21,23.40
2018,06,18,08,22,23.40
2018,06,18,08,23,23.30
2018,06,18,08,24,23.20
2018,06,18,08,25,23.10
2018,06,18,08,26,23.10
2018,06,18,08,27,23.00
2018,06,18,08,28,22.90
2018,06,18,08,29,22.80
2018,06,18,08,30,22.80
2018,06,18,08,31,22.80
2018,06,18,08,32,22.80
2018,06,18,08,33,22.80
2018,06,18,08,34,22.80
2018,06,18,08,35,22.90
2018,06,18,08,36,22.90
2018,06,18,08,37,23.00
2018,06,18,08,38,23.10
2018,06,18,08,39,23.20
2018,06,18,08,40,23.30
2018,06,18,08,41,23.30
2018,06,18,08,42,23.40
2018,06,18,08,43,23.50
2018,06,18,08,44,23.50
2018,06,18,08,45,23.60
2018,06,18,08,46,23.70
2018,06,18,08,47,23.80
2018,06,18,08,48,23.70
2018,06,18,08,49,23.70
2018,06,18,08,50,23.60
2018,06,18,08,51,23.60
2018,06,18,08,52,23.60
2018,06,18,08,53,23.70
2018,06,18,08,54,23.70
2018,06,18,08,55,23.70
2018,06,18,08,56,23.70
2018,06,18,08,57,23.70
2018,06,18,08,58,23.70
2018,06,18,08,59,23.80
2018,06,18,09,00,23.80
2018,06,18,09,01,23.80
2018,06,18,09,02,23.80
2018,06,18,09,03,23.80
2018,06,18,09,04,23.70
2018,06,18,09,05,23.70
2018,06,18,09,06,23.70
2018,06,18,09,07,23.70
2018,06,18,09,08,23.80
2018,06,18,09,09,23.80
2018,06,18,09,10,23.90
2018,06,18,09,11,23.90
2018,06,18,09,12,23.90
2018,06,18,09,13,23.90
2018,06,18,09,14,23.80
2018,06,18,09,15,23.80
2018,06,18,09,16,23.80
2018,06,18,09,17,23.70
2018,06,18,09,18,23.60
2018,06,18,09,19,23.50
2018,06,18,09,20,23.50
2018,06,18,09,21,23.50
2018,06,18,09,22,23.60
2018,06,18,09,23,23.60
2018,06,18,09,24,23.70
2018,06,18,09,25,23.70
2018,06,18,09,26,23.60
2018,06,18,09,27,23.50
2018,06,18,09,28,23.50
2018,06,18,09,29,23.50
2018,06,18,09,30,23.50
2018,06,18,09,31,23.40
2018,06,18,09,32,23.50
2018,06,18,09,33,23.50
2018,06,18,09,34,23.60
2018,06,18,09,35,23.70
2018,06,18,09,36,23.70
2018,06,18,09,37,23.70
2018,06,18,09,38,23.80
2018,06,18,09,39,23.80
2018,06,18,09,40,23.80
2018,06,18,09,41,23.70
2018,06,18,09,42,23.70
2018,06,18,09,43,23.50
2018,06,18,09,44,23.40
2018,06,18,09,45,23.40
2018,06,18,09,46,23.20
2018,06,18,09,47,23.10
2018,06,18,09,48,23.00
2018,06,18,09,49,23.00
2018,06,18,09,50,23.00
2018,06,18,09,51,23.00
2018,06,18,09,52,23.00
2018,06,18,09,53,23.00
2018,06,18,09,54,22.90
2018,06,18,09,55,22.90
2018,06,18,09,56,22.90
2018,06,18,09,57,22.90
2018,06,18,09,58,22.90
2018,06,18,09,59,22.90
2018,06,18,10,00,22.90
2018,06,18,10,01,22.80
2018,06,18,10,02,22.80
2018,06,18,10,03,22.80
2018,06,18,10,04,22.80
2018,06,18,10,05,22.80
2018,06,18,10,06,22.80
2018,06,18,10,07,22.90
2018,06,18,10,08,22.90
2018,06,18,10,09,23.00
2018,06,18,10,10,22.90
2018,06,18,10,11,23.00
2018,06,18,10,12,23.10
2018,06,18,10,13,23.30
2018,06,18,10,14,23.30
2018,06,18,10,15,23.40
2018,06,18,10,16,23.50
2018,06,18,10,17,23.50
2018,06,18,10,18,23.50
2018,06,18,10,19,23.40
2018,06,18,10,20,23.30
2018,06,18,10,21,23.20
2018,06,18,10,22,23.00
2018,06,18,10,23,23.00
2018,06,18,10,24,22.90
2018,06,18,10,25,22.80
2018,06,18,10,26,22.80
2018,06,18,10,27,22.70
2018,06,18,10,28,22.70
2018,06,18,10,29,22.80
2018,06,18,10,30,22.80
2018,06,18,10,31,22.80
2018,06,18,10,32,22.90
2018,06,18,10,33,22.90
2018,06,18,10,34,22.90
2018,06,18,10,35,22.90
2018,06,18,10,36,23.00
2018,06,18,10,37,23.00
2018,06,18,10,38,23.00
2018,06,18,10,39,23.10
2018,06,18,10,40,23.10
2018,06,18,10,41,23.00
2018,06,18,10,42,22.90
2018,06,18,10,43,23.00
2018,06,18,10,44,23.20
2018,06,18,10,45,23.30
2018,06,18,10,46,23.30
2018,06,18,10,47,23.30
2018,06,18,10,48,23.30
2018,06,18,10,49,23.30
2018,06,18,10,50,23.30
2018,06,18,10,51,23.30
2018,06,18,10,52,23.20
2018,06,18,10,53,23.20
2018,06,18,10,54,23.30
2018,06,18,10,55,23.30
2018,06,18,10,56,23.40
2018,06,18,10,57,23.40
2018,06,18,10,58,23.40
2018,06,18,10,59,23.50
2018,06,18,11,00,23.60
2018,06,18,11,01,23.70
2018,06,18,11,02,23.80
2018,06,18,11,03,23.90
2018,06,18,11,04,24.00
2018,06,18,11,05,24.00
2018,06,18,11,06,23.90
2018,06,18,11,07,23.90
2018,06,18,11,08,23.90
2018,06,18,11,09,24.00
2018,06,18,11,10,24.00
2018,06,18,11,11,24.10
2018,06,18,11,12,24.20
2018,06,18,11,13,24.20
2018,06,18,11,14,24.10
2018,06,18,11,15,24.00
2018,06,18,11,16,23.90
2018,06,18,11,17,23.90
2018,06,18,11,18,23.80
2018,06,18,11,19,23.70
2018,06,18,11,20,23.70
2018,06,18,11,21,23.70
2018,06,18,11,22,23.60
2018,06,18,11,23,23.60
2018,06,18,11,24,23.60
2018,06,18,11,25,23.70
2018,06,18,11,26,23.80
2018,06,18,11,27,23.90
2018,06,18,11,28,24.00
2018,06,18,11,29,24.10
2018,06,18,11,30,24.30
2018,06,18,11,31,24.30
2018,06,18,11,32,24.50
2018,06,18,11,33,24.60
2018,06,18,11,34,24.70
2018,06,18,11,35,24.70
2018,06,18,11,36,24.80
2018,06,18,11,37,24.80
2018,06,18,11,38,24.80
2018,06,18,11,39,24.80
2018,06,18,11,40,24.80
2018,06,18,11,41,24.70
2018,06,18,11,42,24.70
2018,06,18,11,43,24.70
2018,06,18,11,44,24.70
2018,06,18,11,45,24.80
2018,06,18,11,46,24.80
2018,06,18,11,47,24.90
2018,06,18,11,48,25.00
2018,06,18,11,49,25.00
2018,06,18,11,50,25.00
2018,06,18,11,51,25.00
2018,06,18,11,52,24.90
2018,06,18,11,53,24.90
2018,06,18,11,54,24.80
2018,06,18,11,55,24.80
2018,06,18,11,56,24.80
2018,06,18,11,57,24.70
2018,06,18,11,58,24.60
2018,06,18,11,59,24.50
2018,06,18,12,00,24.50
2018,06,18,12,01,24.40
2018,06,18,12,02,24.50
2018,06,18,12,03,24.50
2018,06,18,12,04,24.40
2018,06,18,12,05,24.30
2018,06,18,12,06,24.30
2018,06,18,12,07,24.30
2018,06,18,12,08,24.40
2018,06,18,12,09,24.40
2018,06,18,12,10,24.50
2018,06,18,12,11,24.60
2018,06,18,12,12,24.70
2018,06,18,12,13,24.80
2018,06,18,12,14,24.80
2018,06,18,12,15,24.80
2018,06,18,12,16,24.80
2018,06,18,12,17,24.90
2018,06,18,12,18,24.90
2018,06,18,12,19,24.80
2018,06,18,12,20,24.90
2018,06,18,12,21,24.90
2018,06,18,12,22,24.80
2018,06,18,12,23,24.80
2018,06,18,12,24,24.80
2018,06,18,12,25,24.80
2018,06,18,12,26,24.90
2018,06,18,12,27,25.00
2018,06,18,12,28,25.10
2018,06,18,12,29,25.30
2018,06,18,12,30,25.50
2018,06,18,12,31,25.60
2018,06,18,12,32,25.70
2018,06,18,12,33,25.90
2018,06,18,12,34,25.90
2018,06,18,12,35,26.00
2018,06,18,12,36,25.80
2018,06,18,12,37,25.70
2018,06,18,12,38,25.70
2018,06,18,12,39,25.70
2018,06,18,12,40,25.80
2018,06,18,12,41,25.80
2018,06,18,12,42,25.90
2018,06,18,12,43,25.90
2018,06,18,12,44,25.90
2018,06,18,12,45,25.90
2018,06,18,12,46,25.90
2018,06,18,12,47,25.90
2018,06,18,12,48,25.90
2018,06,18,12,49,25.80
2018,06,18,12,50,25.80
2018,06,18,12,51,25.90
2018,06,18,12,52,26.00
2018,06,18,12,53,26.10
2018,06,18,12,54,26.20
2018,06,18,12,55,26.40
2018,06,18,12,56,26.60
2018,06,18,12,57,26.80
2018,06,18,12,58,26.80
2018,06,18,12,59,26.70
2018,06,18,13,00,26.70
2018,06,18,13,01,26.60
2018,06,18,13,02,26.50
2018,06,18,13,03,26.40
2018,06,18,13,04,26.40
2018,06,18,13,05,26.50
2018,06,18,13,06,26.60
2018,06,18,13,07,26.70
2018,06,18,13,08,26.80
2018,06,18,13,09,26.90
2018,06,18,13,10,27.00
2018,06,18,13,11,27.20
2018,06,18,13,12,27.40
2018,06,18,13,13,27.50
2018,06,18,13,14,27.60
2018,06,18,13,15,27.70
2018,06,18,13,16,27.90
2018,06,18,13,17,28.00
2018,06,18,13,18,28.10
2018,06,18,13,19,28.10
2018,06,18,13,20,28.00
2018,06,18,13,21,27.90
2018,06,18,13,22,27.80
2018,06,18,13,23,27.70
2018,06,18,13,24,27.60
2018,06,18,13,25,27.50
2018,06,18,13,26,27.40
2018,06,18,13,27,27.40
2018,06,18,13,28,27.30
2018,06,18,13,29,27.30
2018,06,18,13,30,27.40
2018,06,18,13,31,27.40
2018,06,18,13,32,27.50
2018,06,18,13,33,27.50
2018,06,18,13,34,27.60
2018,06,18,13,35,27.70
2018,06,18,13,36,27.80
2018,06,18,13,37,27.80
2018,06,18,13,38,27.80
2018,06,18,13,39,27.80
2018,06,18,13,40,27.80
2018,06,18,13,41,27.90
2018,06,18,13,42,27.90
2018,06,18,13,43,28.00
2018,06,18,13,44,28.20
2018,06,18,13,45,28.40
2018,06,18,13,46,28.60
2018,06,18,13,47,28.70
2018,06,18,13,48,28.90
2018,06,18,13,49,29.00
2018,06,18,13,50,29.30
2018,06,18,13,51,29.40
2018,06,18,13,52,29.60
2018,06,18,13,53,29.60
2018,06,18,13,54,29.70
2018,06,18,13,55,29.70
2018,06,18,13,56,29.70
2018,06,18,13,57,29.70
2018,06,18,13,58,29.50
2018,06,18,13,59,29.40
2018,06,18,14,00,29.20
2018,06,18,14,01,29.00
2018,06,18,14,02,28.90
2018,06,18,14,03,28.80
2018,06,18,14,04,28.80
2018,06,18,14,05,28.80
2018,06,18,14,06,28.80
2018,06,18,14,07,28.90
2018,06,18,14,08,29.00
2018,06,18,14,09,29.20
2018,06,18,14,10,29.30
2018,06,18,14,11,29.40
2018,06,18,14,12,29.50
2018,06,18,14,13,29.50
2018,06,18,14,14,29.50
2018,06,18,14,15,29.40
2018,06,18,14,16,29.30
2018,06,18,14,17,29.30
2018,06,18,14,18,29.30
2018,06,18,14,19,29.30
2018,06,18,14,20,29.30
2018,06,18,14,21,29.40
2018,06,18,14,22,29.60
2018,06,18,14,23,29.70
2018,06,18,14,24,29.70
2018,06,18,14,25,29.70
2018,06,18,14,26,29.80
2018,06,18,14,27,30.00
2018,06,18,14,28,30.00
2018,06,18,14,29,30.10
2018,06,18,14,30,30.20
2018,06,18,14,31,30.40
2018,06,18,14,32,30.50
2018,06,18,14,33,30.50
2018,06,18,14,34,30.50
2018,06,18,14,35,30.50
2018,06,18,14,36,30.30
2018,06,18,14,37,30.20
2018,06,18,14,38,30.20
2018,06,18,14,39,30.10
2018,06,18,14,40,30.20
2018,06,18,14,41,30.20
2018,06,18,14,42,30.20
2018,06,18,14,43,30.20
2018,06,18,14,44,30.20
2018,06,18,14,45,30.20
2018,06,18,14,46,30.20
2018,06,18,14,47,30.10
2018,06,18,14,48,30.10
2018,06,18,14,49,30.10
2018,06,18,14,50,30.10
2018,06,18,14,51,30.20
2018,06,18,14,52,30.30
2018,06,18,14,53,30.50
2018,06,18,14,54,30.70
2018,06,18,14,55,30.80
2018,06,18,14,56,30.80
2018,06,18,14,57,30.80
2018,06,18,14,58,30.70
2018,06,18,14,59,30.60
2018,06,18,15,00,30.50
2018,06,18,15,01,30.60
2018,06,18,15,02,30.60
2018,06,18,15,03,30.70
2018,06,18,15,04,30.70
2018,06,18,15,05,30.70
2018,06,18,15,06,30.70
2018,06,18,15,07,30.80
2018,06,18,15,08,30.80
2018,06,18,15,09,30.90
2018,06,18,15,10,30.90
2018,06,18,15,11,30.90
2018,06,18,15,12,30.80
2018,06,18,15,13,30.70
2018,06,18,15,14,30.70
2018,06,18,15,15,30.70
2018,06,18,15,16,30.70
2018,06,18,15,17,30.60
2018,06,18,15,18,30.60
2018,06,18,15,19,30.70
2018,06,18,15,20,30.70
2018,06,18,15,21,30.60
2018,06,18,15,22,30.50
2018,06,18,15,23,30.40
2018,06,18,15,24,30.20
2018,06,18,15,25,30.00
2018,06,18,15,26,29.80
2018,06,18,15,27,29.60
2018,06,18,15,28,29.50
2018,06,18,15,29,29.40
2018,06,18,15,30,29.30
2018,06,18,15,31,29.30
2018,06,18,15,32,29.30
2018,06,18,15,33,29.30
2018,06,18,15,34,29.30
2018,06,18,15,35,29.30
2018,06,18,15,36,29.30
2018,06,18,15,37,29.30
2018,06,18,15,38,29.40
2018,06,18,15,39,29.40
2018,06,18,15,40,29.50
2018,06,18,15,41,29.60
2018,06,18,15,42,29.60
2018,06,18,15,43,29.60
2018,06,18,15,44,29.60
2018,06,18,15,45,29.60
2018,06,18,15,46,29.50
2018,06,18,15,47,29.40
2018,06,18,15,48,29.40
2018,06,18,15,49,29.30
2018,06,18,15,50,29.30
2018,06,18,15,51,29.30
2018,06,18,15,52,29.30
2018,06,18,15,53,29.30
2018,06,18,15,54,29.30
2018,06,18,15,55,29.30
2018,06,18,15,56,29.30
2018,06,18,15,57,29.30
2018,06,18,15,58,29.40
2018,06,18,15,59,29.40
2018,06,18,16,00,29.40
2018,06,18,16,01,29.40
2018,06,18,16,02,29.50
2018,06,18,16,03,29.60
2018,06,18,16,04,29.60
2018,06,18,16,05,29.70
2018,06,18,16,06,29.70
2018,06,18,16,07,29.80
2018,06,18,16,08,29.80
2018,06,18,16,09,29.80
2018,06,18,16,10,29.80
2018,06,18,16,11,29.80
2018,06,18,16,12,29.80
2018,06,18,16,13,29.80
2018,06,18,16,14,29.90
2018,06,18,16,15,30.00
2018,06,18,16,16,30.10
2018,06,18,16,17,30.30
2018,06,18,16,18,30.40
2018,06,18,16,19,30.60
2018,06,18,16,20,30.70
2018,06,18,16,21,30.70
2018,06,18,16,22,29.90
2018,06,18,16,23,28.60
2018,06,18,16,24,27.70
2018,06,18,16,25,27.00
2018,06,18,16,26,26.30
2018,06,18,16,27,25.70
2018,06,18,16,28,25.20
2018,06,18,16,29,24.70
2018,06,18,16,30,24.50
2018,06,18,16,31,24.40
2018,06,18,16,32,24.40
2018,06,18,16,33,24.40
2018,06,18,16,34,24.50
2018,06,18,16,35,24.60
2018,06,18,16,36,24.70
2018,06,18,16,37,24.80
2018,06,18,16,38,24.80
2018,06,18,16,39,24.60
2018,06,18,16,40,24.50
2018,06,18,16,41,24.30
2018,06,18,16,42,24.20
2018,06,18,16,43,24.30
2018,06,18,16,44,24.40
2018,06,18,16,45,24.50
2018,06,18,16,46,24.60
2018,06,18,16,47,24.60
2018,06,18,16,48,24.70
2018,06,18,16,49,24.80
2018,06,18,16,50,24.70
2018,06,18,16,51,24.70
2018,06,18,16,52,24.70
2018,06,18,16,53,24.70
2018,06,18,16,54,24.70
2018,06,18,16,55,24.70
2018,06,18,16,56,24.70
2018,06,18,16,57,24.60
2018,06,18,16,58,24.60
2018,06,18,16,59,24.60
2018,06,18,17,00,24.60
2018,06,18,17,01,24.70
2018,06,18,17,02,24.70
2018,06,18,17,03,24.70
2018,06,18,17,04,24.70
2018,06,18,17,05,24.70
2018,06,18,17,06,24.60
2018,06,18,17,07,24.60
2018,06,18,17,08,24.70
2018,06,18,17,09,24.70
2018,06,18,17,10,24.80
2018,06,18,17,11,24.90
2018,06,18,17,12,25.10
2018,06,18,17,13,25.20
2018,06,18,17,14,25.30
2018,06,18,17,15,25.30
2018,06,18,17,16,25.30
2018,06,18,17,17,25.40
2018,06,18,17,18,25.50
2018,06,18,17,19,25.60